TimeEDT,TemperatureF,Dew PointF,Humidity,Sea Level PressureIn,VisibilityMPH,Wind Direction,Wind SpeedMPH,Gust SpeedMPH,PrecipitationIn,Events,Conditions,WindDirDegrees,DateUTC
12:56 AM,55.0,54.0,96,30.04,6.0,Calm,Calm,-,N/A,,Scattered Clouds,0,2013-09-21 04:56:00
1:06 AM,55.4,53.6,94,30.04,7.0,Calm,Calm,-,N/A,,Mostly Cloudy,0,2013-09-21 05:06:00
1:56 AM,57.0,55.9,96,30.03,10.0,Calm,Calm,-,N/A,,Mostly Cloudy,0,2013-09-21 05:56:00
2:17 AM,57.2,55.4,94,30.03,10.0,Calm,Calm,-,N/A,,Scattered Clouds,0,2013-09-21 06:17:00
2:56 AM,57.9,55.9,93,30.02,10.0,SSW,3.5,-,N/A,,Clear,210,2013-09-21 06:56:00
3:56 AM,54.0,54.0,100,30.01,10.0,Calm,Calm,-,N/A,,Clear,0,2013-09-21 07:56:00
4:56 AM,52.0,51.1,97,30.01,10.0,Calm,Calm,-,N/A,,Scattered Clouds,0,2013-09-21 08:56:00
5:06 AM,53.6,51.8,94,30.00,10.0,Calm,Calm,-,N/A,,Mostly Cloudy,0,2013-09-21 09:06:00
5:20 AM,51.8,51.8,100,30.00,10.0,Calm,Calm,-,N/A,,Scattered Clouds,0,2013-09-21 09:20:00
5:56 AM,51.1,50.0,96,29.99,9.0,Calm,Calm,-,N/A,,Clear,0,2013-09-21 09:56:00
6:56 AM,51.1,50.0,96,30.00,10.0,Calm,Calm,-,0.01,,Clear,0,2013-09-21 10:56:00
7:56 AM,55.9,55.0,97,29.99,10.0,Calm,Calm,-,N/A,,Overcast,0,2013-09-21 11:56:00
8:45 AM,64.4,64.4,100,29.99,10.0,Calm,Calm,-,N/A,,Overcast,0,2013-09-21 12:45:00
8:56 AM,66.0,64.0,93,29.99,10.0,Calm,Calm,-,N/A,,Mostly Cloudy,0,2013-09-21 12:56:00
9:56 AM,68.0,62.1,81,29.97,10.0,SE,6.9,-,N/A,,Overcast,140,2013-09-21 13:56:00
10:56 AM,71.1,63.0,75,29.94,10.0,SE,6.9,-,N/A,,Overcast,130,2013-09-21 14:56:00
11:56 AM,73.0,64.9,76,29.92,10.0,SSE,13.8,23.0,N/A,,Overcast,150,2013-09-21 15:56:00
12:56 PM,75.0,66.0,73,29.90,10.0,South,20.7,29.9,N/A,,Overcast,170,2013-09-21 16:56:00
1:56 PM,75.9,66.0,71,29.88,10.0,SSE,18.4,28.8,N/A,,Overcast,160,2013-09-21 17:56:00
2:56 PM,75.9,64.9,69,29.85,10.0,South,18.4,28.8,N/A,,Partly Cloudy,170,2013-09-21 18:56:00
3:56 PM,75.0,64.9,71,29.83,10.0,South,18.4,29.9,N/A,,Clear,170,2013-09-21 19:56:00
4:56 PM,73.9,64.9,73,29.82,10.0,South,18.4,26.5,N/A,,Clear,170,2013-09-21 20:56:00
5:56 PM,72.0,64.9,78,29.81,10.0,South,13.8,24.2,N/A,,Clear,170,2013-09-21 21:56:00
6:56 PM,70.0,66.0,87,29.79,10.0,SSE,15.0,-,N/A,,Mostly Cloudy,160,2013-09-21 22:56:00
7:56 PM,70.0,66.0,87,29.79,10.0,South,13.8,21.9,N/A,,Mostly Cloudy,170,2013-09-21 23:56:00
8:56 PM,70.0,66.9,90,29.77,10.0,South,15.0,-,N/A,,Scattered Clouds,170,2013-09-22 00:56:00
9:31 PM,69.8,66.2,88,29.76,10.0,SSE,18.4,-,N/A,,Partly Cloudy,160,2013-09-22 01:31:00
9:56 PM,70.0,66.9,90,29.75,10.0,South,16.1,-,N/A,,Mostly Cloudy,170,2013-09-22 01:56:00
10:56 PM,70.0,66.9,90,29.74,10.0,SSE,16.1,25.3,N/A,,Partly Cloudy,160,2013-09-22 02:56:00
11:56 PM,70.0,66.9,90,29.72,10.0,South,16.1,26.5,N/A,,Overcast,170,2013-09-22 03:56:00